Location: Borotín
(49.5055°N, 14.6142°E)
Time: 05:58:56
(UTC+00:00)

USA 306 - Pass Details

Date: 27 May 2022
Orbit: 545 x 556 km, 54.0° (Epoch: 20 June)

Event Time Altitude Azimuth Distance (km) Brightness Sun altitude
Exits shadow 01:38:03 - 268° (W) 2,337 5.6 -10.9°
Reaches altitude 10° 01:39:20 10° 272° (W) 1,839 5.1 -10.8°
Maximum altitude 01:43:25 50° 348° (NNW) 713 3.7 -10.3°
Drops below altitude 10° 01:47:31 10° 65° (ENE) 1,851 6.6 -9.9°
Sets 01:49:50 0° 71° (ENE) 2,750 7.5 -9.7°
